Regional Weather Roundup
Issued by NWS Goodland, KS

Home | Current Version | Previous Version | Graphics & Text | Print | Product List | Glossary On
Versions: 1 2 3 4 5 6 7 8 9 10 11 12 13 14 15 16 17 18 19 20 21 22 23 24 25 26 27 28 29 30 31 32 33 34 35 36 37 38 39 40 41 42 43 44 45 46 47 48 49 50
000
ASUS43 KGLD 180008
RWRGLD

GOODLAND FORECAST AREA HOURLY WEATHER ROUNDUP
NATIONAL WEATHER SERVICE GOODLAND KS
600 PM MDT TUE OCT 17 2017

...OFFICIAL OBSERVATIONS...

CITY           SKY/WX    TMP DP  RH WIND       PRES   REMARKS
GOODLAND KS    CLEAR     61  32  33 S9        30.04F
HILL CITY KS   CLEAR     71  37  28 S6        30.00F
IMPERIAL NEB   CLEAR     66  22  18 S7        29.99F
MCCOOK NEB     CLEAR     72  32  23 S6        29.99F
AKRON CO       CLEAR     68  20  16 W6        30.06S
BURLINGTON CO  CLEAR     60  24  25 S9        30.07S
LIMON CO       CLOUDY    64  22  20 S5        30.12S
$$

...UNOFFICIAL OBSERVATIONS...

CITY           SKY/WX    TMP DP  RH WIND       PRES   REMARKS
YUMA CO        FAIR      68  23  18 S7        30.03S
$$




USA.gov is the U.S. government's official web portal to all federal, state and local government web resources and services.